Hourly Data Report for October 18, 2015

All times are specified in Local Standard Time (LST). Add 1 hour to adjust for Daylight Saving Time where and when it is observed.

BATHURST A
NEW BRUNSWICK

47°37'47.000" N
65°44'20.000" W
58.80 m
8100505
71574
ZBF

Download Data

Hourly Data (October 2015)
Hourly Data Report for October 18, 2015
Temp Definition
°C
Dew Point Temp Definition
°C
Rel Hum Definition
%
Wind Dir Definition
10's deg

Wind Spd Definition
km/h
Visibility Definition
km
Stn Press Definition
kPa
Hmdx Definition


Wind Chill Definition


Weather Definition


TIME
00:00 Legend Double Dagger 1.3 0.0 91 30 4 16.1 100.60     Snow
01:00 Legend Double Dagger 0.5 -0.5 93 28 7 24.1 100.57     LegendNANA
02:00 Legend Double Dagger -0.1 -1.5 90 29 10 24.1 100.57   -3 Clear
03:00 Legend Double Dagger -0.6 -2.2 89 28 10 24.1 100.57   -4 LegendNANA
04:00 Legend Double Dagger -0.9 -2.6 88 29 11 24.1 100.59   -5 LegendNANA
05:00 Legend Double Dagger -1.2 -3.1 87 28 9 24.1 100.63   -4 Clear
06:00 Legend Double Dagger -1.1 -3.6 83 30 8 24.1 100.64   -4 LegendNANA
07:00 Legend Double Dagger -1.3 -3.8 83 28 8 24.1 100.68   -4 LegendNANA
08:00 Legend Double Dagger -0.5 -3.5 80 29 13 24.1 100.74   -5 Clear
09:00 Legend Double Dagger 0.9 -3.6 72 29 14 24.1 100.77     LegendNANA
10:00 Legend Double Dagger 2.0 -3.9 65 27 17 24.1 100.79     LegendNANA
11:00 Legend Double Dagger 2.8 -5.6 54 28 15 24.1 100.76     Mainly Clear
12:00 Legend Double Dagger 3.3 -5.4 53 27 22 24.1 100.75     LegendNANA
13:00 Legend Double Dagger 3.7 -5.0 53 27 20 24.1 100.73     LegendNANA
14:00 Legend Double Dagger 3.5 -7.1 46 28 21 24.1 100.70     Mostly Cloudy
15:00 Legend Double Dagger 3.5 -5.2 53 26 19 24.1 100.71     LegendNANA
16:00 Legend Double Dagger 0.5 -1.3 88 27 15 24.1 100.76     LegendNANA
17:00 Legend Double Dagger 1.2 -2.7 75 28 17 24.1 100.79     Mainly Clear
18:00 Legend Double Dagger 0.1 -2.3 84 29 14 19.3 100.84     Snow Showers
19:00 Legend Double Dagger 0.1 -1.2 91 29 13 9.7 100.93     Snow Showers
20:00 Legend Double Dagger -0.1 -2.3 85 29 14 24.1 100.96   -4 Mainly Clear
21:00 Legend Double Dagger -0.3 -3.2 81 30 14 24.1 101.03   -5 LegendNANA
22:00 Legend Double Dagger -0.6 -4.0 78 30 9 24.1 101.07   -4 LegendNANA
23:00 Legend Double Dagger -1.0 -5.1 74 30 13 24.1 101.09   -5 Clear

Notes on Data Quality.

Legend

  • E = Estimated
  • M = Missing
  • NA = Not Available
  • ‡ = Partner data that is not subject to review by the National Climate Archives
Date modified: